VAXJO current weather conditions

sailwx.info

Wind from 230 at 12 knots gusting 22

Air temperature 9.0° C
Visibility: greater than 5.4 NM
Dewpoint 8.0° C
Present weather: Light drizzle.

Last reported at 2014-Dec-19 01:20 UTC.
Time now 2014-Dec-19 03:15 UTC

Location: N 56°51' E 014°50'.
View on Google Maps.

See reports from other nearby stations

  
Tides and Currents Weather Stations Pressure Air Temp Water Temp Dewpoint Dewpoint Depression Visibility Wind Speed Wind Dir Waves Ship Positions
date/time (UTC)wind fromknots sea level pressurealtimeterstation pressurevisibilityair tempwater tempwave heightnotes
2014-Dec-19 02:20 240 15 gusting 27 5.4 9.0
2014-Dec-19 01:50 250 13 5.4 9.0
2014-Dec-19 01:20 230 12 gusting 22 5.4 9.0 Light drizzle.
2014-Dec-19 00:50 230 10 2.7 9.0 Light drizzle. Mist.
2014-Dec-19 00:20 240 11 5.4 9.0
2014-Dec-18 23:50 220 10 2.7 8.0 Light drizzle. Mist.
2014-Dec-18 23:20 220 8 1.6 8.0 Drizzle. Mist.
2014-Dec-18 22:50 210 6 1.0 8.0 Mist.
2014-Dec-18 22:20 220 7 1.6 8.0 Drizzle. Mist.
2014-Dec-18 21:50 210 7 1.4 8.0 Drizzle. Mist.
2014-Dec-18 21:20 210 9 2.7 8.0 Drizzle. Mist.
2014-Dec-18 20:50 180 9 2.2 7.0 Drizzle. Mist.
2014-Dec-18 20:24 180 8 5.4 7.0 Light drizzle.
2014-Dec-18 20:20 180 7 5.4 7.0 Drizzle.
2014-Dec-18 19:50 170 7 5.4 7.0 Light rain.
2014-Dec-18 19:20 180 7 5.4 7.0 Light rain.
2014-Dec-18 18:50 190 7 5.4 7.0 Light rain.
2014-Dec-18 18:20 190 7 5.4 7.0 Light rain.
2014-Dec-18 17:50 190 8 4.9 7.0 Rain.
2014-Dec-18 17:20 180 10 4.9 7.0 Light drizzle.
2014-Dec-18 16:50 190 9 5.4 7.0 Light drizzle.
2014-Dec-18 16:20 190 9 5.4 7.0
2014-Dec-18 15:50 190 9 1.2 6.0 Drizzle.
2014-Dec-18 15:20 200 10 2.0 6.0 Mist.
2014-Dec-18 14:50 180 10 1.5 6.0 Drizzle.
2014-Dec-18 14:20 190 11 1.2 6.0 Drizzle.
2014-Dec-18 13:50 190 10 2.1 6.0 Mist.
2014-Dec-18 13:20 190 9 2.7 6.0 Mist.
2014-Dec-18 12:50 180 10 2.5 5.0 Light drizzle.
2014-Dec-18 12:20 190 12 2.7 5.0 Light rain.
2014-Dec-18 11:50 190 12 2.7 5.0 Mist.
2014-Dec-18 11:20 210 11 3.8 5.0 Mist.
2014-Dec-18 10:50 210 10 1.5 4.0 Mist.
2014-Dec-18 10:20 190 9 1.4 4.0 Mist.
2014-Dec-18 09:50 210 9 0.9 4.0 Mist.
2014-Dec-18 09:20 200 9 1.2 4.0 Mist.
2014-Dec-18 08:50 200 10 0.6 3.0 Mist.
2014-Dec-18 08:20 180 7 0.9 3.0 Mist.
2014-Dec-18 07:50 190 9 0.9 3.0 Light drizzle.
2014-Dec-18 07:20 190 10 1.5 3.0 Mist.
2014-Dec-18 06:50 190 11 1.8 3.0 Drizzle.
2014-Dec-18 06:20 200 10 1.6 3.0 Light drizzle.
2014-Dec-18 05:50 190 9 1.8 2.0 Mist.
2014-Dec-18 05:20 180 7 3.2 2.0 Mist.
2014-Dec-18 04:50 190 7 5.4 2.0
2014-Dec-18 04:20 200 7 3.8 2.0 Mist.
2014-Dec-18 03:50 190 6 4.3 2.0 Mist.
2014-Dec-18 03:20 190 6 4.9 2.0 Mist.
2014-Dec-18 02:50 200 6 3.8 3.0 Mist.
2014-Dec-18 02:20 200 8 2.7 3.0 Mist.
2014-Dec-18 01:50 210 9 1.6 3.0 Mist.
2014-Dec-18 01:20 190 6 1.3 2.0 Mist.
2014-Dec-18 00:50 180 5 1.4 2.0 Mist.
2014-Dec-18 00:20 180 5 2.1 2.0 Mist.
2014-Dec-17 23:50 180 5 2.2 2.0 Mist.
2014-Dec-17 23:20 190 5 2.2 2.0 Mist.
2014-Dec-17 22:50 200 6 1.9 2.0 Mist.
2014-Dec-17 22:20 190 5 1.0 2.0 Mist.
2014-Dec-17 21:50 190 5 0.4 2.0 Fog.
2014-Dec-17 21:20 190 5 0.6 2.0 Mist.
2014-Dec-17 20:50 190 6 1.6 2.0 Mist.
2014-Dec-17 20:20 210 6 2.7 2.0 Mist.
2014-Dec-17 19:50 210 4 2.6 2.0 Mist.
2014-Dec-17 19:20 220 7 3.8 2.0 Mist.
2014-Dec-17 18:50 220 4 4.3 2.0 Mist.
2014-Dec-17 18:20 210 6 4.9 3.0 Mist.
2014-Dec-17 17:50 220 6 4.3 3.0 Mist.
2014-Dec-17 17:20 220 6 4.9 2.0 Mist.
2014-Dec-17 16:50 200 5 4.9 2.0 Mist.
2014-Dec-17 16:20 210 6 4.9 2.0 Light drizzle.
2014-Dec-17 15:50 230 4 5.4 2.0
2014-Dec-17 15:20 240 5 4.3 2.0 Light drizzle rain.
2014-Dec-17 14:50 240 6 5.4 2.0 Light rain drizzle.
2014-Dec-17 14:20 210 5 5.4 1.0
2014-Dec-17 13:50 240 5 5.4 2.0
2014-Dec-17 13:20 250 7 5.4 2.0
2014-Dec-17 12:50 230 5 5.4 2.0
2014-Dec-17 12:20 240 5 5.4 3.0
2014-Dec-17 11:50 230 5 5.4 2.0
2014-Dec-17 11:20 260 7 5.4 3.0
2014-Dec-17 10:50 250 6 5.4 2.0
2014-Dec-17 10:20 260 6 5.4 2.0
2014-Dec-17 09:50 270 6 5.4 2.0
2014-Dec-17 09:20 280 8 5.4 2.0
2014-Dec-17 08:50 280 7 5.4 2.0
2014-Dec-17 08:20 280 6 5.4 2.0
2014-Dec-17 07:50 270 7 5.4 2.0
2014-Dec-17 07:20 270 8 5.4 2.0
2014-Dec-17 06:50 240 6 5.4 2.0
2014-Dec-17 06:20 250 6 2.0
2014-Dec-17 05:50 250 7 5.4 2.0
2014-Dec-17 05:20 240 7 5.4 2.0
2014-Dec-17 04:50 250 10 5.4 2.0 Light drizzle.
2014-Dec-17 04:20 250 10 5.4 2.0 Light drizzle.
2014-Dec-17 03:50 220 10 5.4 2.0 Light rain.
2014-Dec-17 03:20 200 9 5.4 3.0 Light rain.